Location: �couen
(49.0206°N, 2.3831°E)
Time: 06:35:29
(UTC+00:00)

Cosmos 1758 - Pass Details

Date: 05 June 2022
Orbit: 538 x 557 km, 82.5° (Epoch: 03 July)

Event Time Altitude Azimuth Distance (km) Brightness Sun altitude
Rises 21:26:20 0° 360° (N) 2,724 7.9 -11.6°
Reaches altitude 10° 21:28:50 10° 14° (NNE) 1,830 6.6 -11.8°
Maximum altitude 21:32:09 24° 70° (ENE) 1,155 4.8 -12.1°
Enters shadow 21:34:33 15° 116° (ESE) 1,542 5.1 -12.3°
